Regional Weather Roundup
Issued by NWS

Home | Current Version | Previous Version | Graphics & Text | Print | Product List | Glossary On
Versions: 1 2 3 4 5 6 7 8 9 10 11 12 13 14 15 16 17 18 19 20 21 22 23 24 25 26 27 28 29 30 31 32 33 34 35 36 37 38 39 40 41 42 43 44 45 46 47 48 49 50
000
ASUS43 KLOT 060406
RWRIL

ILLINOIS REGIONAL WEATHER ROUNDUP
NATIONAL WEATHER SERVICE CHICAGO/ROMEOVILLE IL
1000 PM CST THU MAR 05 2015

NOTE: "FAIR" INDICATES FEW OR NO CLOUDS BELOW 12,000 FEET WITH NO
SIGNIFICANT WEATHER AND/OR OBSTRUCTIONS TO VISIBILITY.

* THESE STATIONS ARE NOT UNDER NWS QUALITY CONTROL. THEY ALSO MAY NOT
  REPORT WEATHER SUCH AS PRECIPITATION OR FOG.

ILZ001-002-007-009-015-016-024-060500-
NORTHWEST ILLINOIS

CITY           SKY/WX    TMP DP  RH WIND       PRES   REMARKS
MOLINE         PTCLDY     3  -4  72 SE3       30.55F
STERLING*      MOCLDY     0  -4  85 CALM      30.54F
SAVANNA*       MOCLDY    -1  -7  76 SW3       30.55S
$$

ILZ003-004-008-010-011-017-018-060500-
NORTH CENTRAL ILLINOIS

CITY           SKY/WX    TMP DP  RH WIND       PRES   REMARKS
ROCKFORD       MOCLDY     2  -6  69 SW5       30.54S WCI  -8
FREEPORT*      MOCLDY     2  -6  67 SW6       30.53S WCI  -9
ROCHELLE*      PTCLDY    -3  -8  78 SW5       30.54S WCI -13
DE KALB*       PTCLDY     3  -5  70 W6        30.52F WCI  -8
PERU*          PTCLDY     7   0  72 SW3       30.57S
$$

ILZ005-006-012>014-019>023-060500-
NORTHEAST ILLINOIS

CITY           SKY/WX    TMP DP  RH WIND       PRES   REMARKS
CHICAGO-OHARE  PTCLDY     8  -2  63 W9        30.54R WCI  -5
CHICAGO-MIDWAY PTCLDY    12  -1  56 W10       30.55S WCI  -1
AURORA         PTCLDY     4  -4  69 W6        30.54F WCI  -7
LANSING*       PTCLDY     6  -2  69 W3        30.55S
JOLIET*        PTCLDY     6  -2  68 W3        30.57S
WAUKEGAN       PTCLDY     3  -5  69 SW5       30.51S WCI  -6
DUPAGE AIRPORT PTCLDY     5  -3  69 SW6       30.53S WCI  -6
KANKAKEE*      PTCLDY     1  -4  78 SW3       30.58S
WHEELING       PTCLDY     9  -3  58 SW5       30.55R WCI   1
MORRIS*        PTCLDY     2  -3  79 W3        30.56S
ROMEOVILLE*    PTCLDY     4  -3  71 W6        30.55S WCI  -7
NORTHERLY ISL    N/A     13   0  56 W6          N/A  WCI   4
$$

LMZ740>746-060500-
SOUTHERN LAKE MICHIGAN

STATION/POSITION SKY/WX   TEMP    WIND        PRES    VSBY  WAVE
                          AIR SEA DIR/SP/G                  HT/PER
                          (F)     (DEG/KT/KT) (MB)    (MI)  (FT/S)
WAUKEGAN HARBOR             9                   N/A
HARRISON CRIB              12     260/ 14/ 17   N/A
BURNHAM HARBOR             13     270/ 10/ 11   N/A
CALUMET HARBOR             11     230/  4/  7 1033.1R
MICHIGAN CITY              11     180/  7/  9   N/A
$$

ILZ025>027-034>036-040-047-049-050-058-095>099-060500-
WEST-CENTRAL ILLINOIS

CITY           SKY/WX    TMP DP  RH WIND       PRES   REMARKS
QUINCY         PTCLDY     9   0  67 SE6       30.56R WCI  -1
GALESBURG*     FAIR      -1  -4  87 S3        30.55S
MACOMB*        PTCLDY     1  -3  85 CALM      30.58F
JACKSONVILLE*  PTCLDY     3  -4  72 E5        30.58F WCI  -6
PITTSFIELD*    PTCLDY    11   2  66 CALM      30.58S
$$

ILZ028>032-037-038-041>044-048-051>054-059>061-060500-
CENTRAL ILLINOIS

CITY           SKY/WX    TMP DP  RH WIND       PRES   REMARKS
PONTIAC        PTCLDY     2  -2  82 SW3       30.59R
BLOOMINGTON    PTCLDY     5  -1  76 CALM      30.57S
DECATUR        CLOUDY     2  -6  69 CALM      30.59S
PEORIA         MOCLDY     7  -3  64 CALM      30.59S
LACON*         MOCLDY     1  -5  75 CALM      30.58S
LINCOLN*       MOCLDY     7   0  74 CALM      30.62S
SPRINGFIELD    MOCLDY     4  -3  73 CALM      30.60S
TAYLORVILLE    MOCLDY     5   1  85 CALM      30.60R
$$

ILZ033-039-045-046-055>057-062-063-060500-
EAST-CENTRAL ILLINOIS

CITY           SKY/WX    TMP DP  RH WIND       PRES   REMARKS
CHAMPAIGN      MOCLDY    -5  -8  87 SW5       30.58R WCI -16
DANVILLE*      MOCLDY     1  -3  84 CALM      30.55F
RANTOUL*       MOCLDY     1  -4  81 CALM      30.58R
MATTOON        MOCLDY     4  -2  76 CALM      30.57F
PARIS*         PTCLDY    -4  -7  86 CALM      30.60S
$$

ILZ079-100>102-060500-
SOUTHWEST ILLINOIS

CITY           SKY/WX    TMP DP  RH WIND       PRES   REMARKS
ALTON          PTCLDY    10   1  67 CALM      30.61S
BELLEVILLE     CLEAR     15   8  75 E5        30.60S WCI   7
CAHOKIA*       CLEAR     17   8  67 E3        30.61S
SPARTA*        PTCLDY    14   7  73 CALM      30.61S
$$

ILZ064>066-069>071-074>076-080>082-084>086-088>090-092>094-060500-
SOUTH-CENTRAL ILLINOIS

CITY           SKY/WX    TMP DP  RH WIND       PRES   REMARKS
CARBONDALE     PTCLDY     8   4  83 NE3       30.62R
CAIRO*         PTCLDY    18   8  67 NE5       30.62R WCI  11
EFFINGHAM*     PTCLDY     5  -2  71 CALM      30.62S
MARION         CLEAR      9   5  85 CALM      30.62R
MT. VERNON     MOCLDY     9   0  66 CALM      30.61R
CENTRALIA*     MOCLDY    13   5  70 CALM      30.61R
SALEM*         MOCLDY    12   4  70 CALM      30.61R
METROPOLIS*    PTCLDY    13   6  73 CALM      30.61R
$$

ILZ067-068-072-073-078-083-087-091-060500-
SOUTHEAST ILLINOIS

CITY           SKY/WX    TMP DP  RH WIND       PRES   REMARKS
LAWRENCEVILLE  PTCLDY     9   2  73 N3        30.62R
FLORA*         PTCLDY    10   3  74 CALM      30.62S
FAIRFIELD*     PTCLDY     9   4  81 CALM      30.61S
HARRISBURG*    PTCLDY    10  -1  62 N5        30.63S WCI   2
ROBINSON*      PTCLDY     5   2  86 N5        30.62S WCI  -4
CARMI*         PTCLDY    10   3  75 N6        30.61S WCI   0
$$

ABBREVIATIONS USED IN REMARKS
   TC - TEMPERATURE IN CELSIUS
  WCI - WIND CHILL INDEX
   HX - HEAT INDEX
  VSB - VISIBILITY
$$



USA.gov is the U.S. government's official web portal to all federal, state and local government web resources and services.